Regional Weather Roundup
Issued by NWS Green Bay, WI

Home | Current Version | Previous Version | Graphics & Text | Print | Product List | Glossary Off
Versions: 1 2 3 4 5 6 7 8 9 10 11 12 13 14 15 16 17 18 19 20 21 22 23 24 25 26 27 28 29 30 31 32 33 34 35 36 37 38 39 40 41 42 43 44 45 46 47 48 49 50

000
ASUS43 KGRB 220600
RWRGRB

NORTH-CENTRAL AND NORTHEAST WISCONSIN REGIONAL WEATHER ROUNDUP
NATIONAL WEATHER SERVICE GREEN BAY WI
1200 AM CST WED FEB 22 2017

WIZ005-009-010>012-018-019-220700-
NORTH CENTRAL WISCONSIN

CITY           SKY/WX    TMP DP  RH WIND       PRES   REMARKS
IRONWOOD       CLOUDY    48  38  68 SW8       29.68R
MANITOWISH WTR NOT AVBL
ARBOR VITAE    NOT AVBL
EAGLE RIVER    NOT AVBL
LAND O LAKES   CLOUDY    44  32  61 CALM      29.71S
RHINELANDER    CLOUDY    48  33  56 SW9       29.71S
PHILLIPS       CLOUDY    44  35  69 CALM      29.69S
ANTIGO         NOT AVBL
TOMAHAWK       NOT AVBL
MERRILL        NOT AVBL
$$

WIZ013-073-220700-
NORTHEAST WISCONSIN

CITY           SKY/WX    TMP DP  RH WIND       PRES   REMARKS
IRON MOUNTAIN  CLOUDY    44  34  67 SE3       29.70F
MARINETTE      CLOUDY    49  37  63 SW6       29.76F
$$

WIZ017-030-035>037-045-220700-
CENTRAL WISCONSIN

CITY           SKY/WX    TMP DP  RH WIND       PRES   REMARKS
MEDFORD        NOT AVBL
WAUSAU         PTCLDY    46  33  60 SW9       29.72F
MOSINEE        CLEAR     37  32  81 S8        29.75F
MARSHFIELD     CLEAR     44  34  67 S5        29.73S
WISC RAPIDS    PTCLDY    47  36  65 S7        29.76F
STEVENS POINT  NOT AVBL
WAUPACA        NOT AVBL
SHAWANO        NOT AVBL
CLINTONVILLE   CLOUDY    45  36  70 CALM      29.76F
WAUTOMA        CLOUDY    49  36  61 S5        29.78F
$$

WIZ038-039-048-051-220700-
FOX VALLEY

CITY           SKY/WX    TMP DP  RH WIND       PRES   REMARKS
NWS GREEN BAY  CLOUDY    44  39  82 S7        29.77F
APPLETON       CLOUDY    46  34  61 S9        29.77S
OSHKOSH        CLOUDY    51  39  63 SW10      29.78S
FOND DU LAC    CLOUDY    53  38  56 SW9       29.79F
$$

WIZ022-050-052-220700-
EAST CENTRAL WISCONSIN

CITY           SKY/WX    TMP DP  RH WIND       PRES   REMARKS
EPHRAIM        NOT AVBL
WASHINGTON ISL CLOUDY    40  39  97 S8        29.76F FOG
STURGEON BAY   NOT AVBL
MANITOWOC      NOT AVBL
SHEBOYGAN      CLOUDY    41  39  93 SW8       29.80F
$$

LMZ563-521-522-541>543-220700-
LAKESHORE

STATION/POSITION TIME  TEMP    WIND        PRES    VSBY  WAVE
                       AIR SEA DIR/SP/G                  HT/PER
                 (UTC) (F)     (DEG/KT/KT) (MB)    (MI)  (FT/S)
SHEBOYGAN LKSHOR 0500   39     190/ 11/ 12 1009.8F
KEWAUNEE LKSHORE 0530   41     200/  7/ 11 1008.4F
ALGOMA MARINA    0525          210/ 10/ 12   N/A
NORTHPORT PIER   0540   46     170/  5/  8 1007.8F
SISTER BAY LKSHO 0535   48     190/ 17/ 19   N/A
CHAMBERS ISLAND  0540   47     170/  6/ 14 1007.5F
MENOMINEE LKSHOR 0530   46     180/ 10/ 13 1007.1F
$$



USA.gov is the U.S. government's official web portal to all federal, state and local government web resources and services.